Weather reports worldwide

Advertisment
Regensburg, Germany (10776): temperature & dewpoint: 10.09.2019 17:00:00 - 16.09.2019 17:00:00 (CEST)Regensburg, Germany (10776): temperature 5cm & temperature -5cm: 10.09.2019 17:00:00 - 16.09.2019 17:00:00 (CEST)Regensburg, Germany (10776): temperature -20cm & temperature -100cm: 10.09.2019 17:00:00 - 16.09.2019 17:00:00 (CEST)Regensburg, Germany (10776): wind speed & gusts: 10.09.2019 17:00:00 - 16.09.2019 17:00:00 (CEST)Regensburg, Germany (10776): wind direction: 10.09.2019 17:00:00 - 16.09.2019 17:00:00 (CEST)Regensburg, Germany (10776): reduced air pressure: 10.09.2019 17:00:00 - 16.09.2019 17:00:00 (CEST)Regensburg, Germany (10776): visibility: 10.09.2019 17:00:00 - 16.09.2019 17:00:00 (CEST)Regensburg, Germany (10776): sunshine duration: 10.09.2019 17:00:00 - 16.09.2019 17:00:00 (CEST)Regensburg, Germany (10776): precipitation: 10.09.2019 17:00:00 - 16.09.2019 17:00:00 (CEST)
Date & Time tt [°C] td [°C] tt 5cm [°C] tt -5cm [°C] tt -20cm [°C] tt -100cm [°C] ff [km/h] ff [kn] fx [km/h] fx [kn] dd ppp [hPa] vv [km] sd [min] rr [mm]
16.09.2019 17:00:00 23,3 13,6 24,1 25,6 20,1 18,3 6 3 20 11 NW 1016,3 49 0 0,0
16.09.2019 16:00:00 24,0 11,5 25,5 27,1 19,6 18,3 8 4 28 15 WNW 1016,3 45 24 0,0
16.09.2019 15:00:00 24,6 11,5 26,7 26,8 19,0 18,3 7 4 21 11 W 1017,2 50 14 0,0
16.09.2019 14:00:00 24,7 13,2 29,9 25,7 18,5 18,2 5 3 10 5 SSW 1017,4 41 18 0,0
16.09.2019 13:00:00 22,7 12,2 25,5 24,7 18,1 18,2 4 2 9 5 ESE 1018,6 71 30 0,0
16.09.2019 12:00:00 21,5 11,2 25,4 23,1 17,8 18,2 4 2 8 4 SSW 1019,3 47 47 0,0
16.09.2019 11:00:00 19,0 11,1 19,3 20,2 17,6 18,2 3 2 6 3 S 1019,7 40 34 0,0
16.09.2019 10:00:00 16,4 11,5 17,4 17,4 17,7 18,2 3 1 7 4 W 1020,7 37 60 0,0
16.09.2019 09:00:00 12,1 10,5 12,7 14,5 17,9 18,2 4 2 6 4 NNW 1021,2 25 33 0,0
16.09.2019 08:00:00 10,3 10,0 9,7 13,0 18,2 18,2 4 2 7 4 NNW 1021,4 23 0 0,0
16.09.2019 07:00:00 10,1 9,8 7,8 13,2 18,6 18,2 2 1 5 3 ENE 1021,2 24 0 0,0
16.09.2019 06:00:00 10,4 10,1 8,1 13,6 18,9 18,2 2 1 5 3 NE 1021,3 24 0 0,0
16.09.2019 05:00:00 10,8 10,4 8,7 14,1 19,2 18,2 4 2 7 4 N 1021,7 13 0 0,0
16.09.2019 04:00:00 11,9 11,7 8,8 14,7 19,6 18,2 4 2 9 5 NNE 1021,6 22 0 0,0
16.09.2019 03:00:00 12,4 12,1 9,3 15,4 19,9 18,2 4 2 7 4 N 1021,6 17 0 0,0
16.09.2019 02:00:00 13,3 12,8 10,2 16,1 20,2 18,2 0 0 6 3 N 1021,6 22 0 0,0
16.09.2019 01:00:00 13,8 13,1 10,7 16,8 20,6 18,2 3 2 6 3 NNE 1021,9 2,2 0 0,0
16.09.2019 00:00:00 15,2 13,9 11,9 17,6 20,9 18,2 4 2 6 4 SE 1021,5 45 0 0,0
15.09.2019 23:00:00 15,5 13,9 12,7 18,5 21,2 18,2 3 1 6 3 NNW 1021,4 40 0 0,0
15.09.2019 22:00:00 17,8 14,5 14,0 19,6 21,4 18,2 6 3 11 6 WSW 1020,9 64 0 0,0
15.09.2019 21:00:00 18,9 14,0 15,0 20,7 21,5 18,2 6 3 10 6 SW 1020,5 63 0 0,0
15.09.2019 20:00:00 20,5 14,0 16,5 22,2 21,6 18,2 6 4 16 8 S 1020,0 71 0 0,0
15.09.2019 19:00:00 23,2 14,0 20,2 23,9 21,4 18,2 8 4 18 10 SSW 1019,7 68 39 0,0
15.09.2019 18:00:00 25,1 13,2 23,6 25,7 21,1 18,2 10 5 21 11 SSW 1019,8 69 60 0,0
15.09.2019 17:00:00 26,1 13,8 28,9 28,2 20,5 18,2 9 5 23 12 SSW 1020,1 66 60 0,0
15.09.2019 16:00:00 25,8 13,5 29,3 29,2 19,9 18,2 10 5 19 10 SSW 1020,8 52 60 0,0
15.09.2019 15:00:00 25,4 13,4 29,1 29,3 19,2 18,2 7 4 18 10 S 1021,5 54 60 0,0
15.09.2019 14:00:00 23,7 13,0 26,9 28,7 18,6 18,2 6 3 15 8 SSW 1022,7 75 57 0,0
15.09.2019 13:00:00 22,1 12,9 25,5 26,8 18,0 18,2 5 3 18 10 S 1023,6 52 60 0,0
15.09.2019 12:00:00 20,4 12,9 23,7 24,2 17,7 18,2 9 5 16 9 SE 1024,6 51 60 0,0
15.09.2019 11:00:00 18,6 12,2 21,1 21,2 17,5 18,2 7 4 21 11 SSE 1025,5 52 60 0,0
15.09.2019 10:00:00 17,5 11,7 19,6 18,1 17,5 18,2 12 6 23 12 SE 1025,8 50 60 0,0
15.09.2019 09:00:00 15,1 11,6 14,7 15,0 17,7 18,2 10 5 18 10 SE 1026,1 43 41 0,0
15.09.2019 08:00:00 12,2 11,5 10,6 13,2 18,0 18,2 3 2 7 4 SSE 1026,5 32 0 0,0
15.09.2019 07:00:00 11,6 11,0 8,6 13,3 18,2 18,2 4 2 6 3 SSE 1026,8 30 0 0,0
15.09.2019 06:00:00 12,3 11,4 9,3 13,8 18,5 18,2 4 2 6 3 SE 1026,8 31 0 0,0
15.09.2019 05:00:00 13,1 11,9 10,0 14,2 18,8 18,2 3 2 8 5 SE 1027,2 36 0 0,0
15.09.2019 04:00:00 13,5 12,2 10,3 14,7 19,1 18,2 5 3 14 8 SE 1027,4 53 0 0,0
15.09.2019 03:00:00 13,6 12,5 10,5 15,2 19,4 18,2 6 3 11 6 SE 1027,6 45 0 0,0
15.09.2019 02:00:00 13,1 11,8 11,0 15,7 19,7 18,2 5 3 7 4 SE 1028,3 56 0 0,0
15.09.2019 01:00:00 13,2 11,5 11,0 16,1 20,0 18,2 3 2 8 5 N 1028,6 60 0 0,0
15.09.2019 00:00:00 14,4 11,5 11,7 16,8 20,3 18,2 9 5 12 6 NE 1028,7 61 0 0,0
14.09.2019 23:00:00 15,1 11,9 12,2 17,4 20,7 18,2 6 3 11 6 NE 1029,0 68 0 0,0
14.09.2019 22:00:00 14,9 12,4 12,2 18,3 20,9 18,2 5 3 9 5 NNW 1029,0 65 0 0,0
14.09.2019 21:00:00 15,7 12,6 12,8 19,4 21,1 18,2 4 2 10 5 NNW 1028,8 75 0 0,0
14.09.2019 20:00:00 18,3 12,6 14,8 20,8 21,3 18,2 5 3 13 7 E 1028,2 75 0 0,0
14.09.2019 19:00:00 20,7 12,2 18,7 22,5 21,2 18,2 6 4 13 7 NE 1027,8 75 40 0,0
14.09.2019 18:00:00 22,3 11,5 21,0 24,2 21,0 18,2 6 4 14 7 NNE 1027,5 75 60 0,0
14.09.2019 17:00:00 22,8 12,4 24,8 26,4 20,6 18,2 9 5 20 11 NE 1027,6 75 60 0,0
14.09.2019 16:00:00 23,3 13,4 27,2 26,9 20,1 18,2 9 5 20 11 NE 1028,3 61 15 0,0
14.09.2019 15:00:00 22,3 13,4 24,3 29,3 19,6 18,2 10 6 20 11 NNE 1028,9 75 49 0,0
14.09.2019 14:00:00 22,6 13,4 26,9 27,3 19,0 18,2 4 2 13 7 NNE 1029,3 68 41 0,0
14.09.2019 13:00:00 22,3 13,7 25,8 26,5 18,6 18,2 4 2 15 8 SSE 1029,9 75 55 0,0
14.09.2019 12:00:00 21,3 13,3 24,5 23,9 18,3 18,2 9 5 16 9 SSE 1030,2 75 60 0,0
14.09.2019 11:00:00 20,5 13,2 23,0 20,6 18,2 18,2 8 5 18 10 NNE 1030,9 51 14 0,0
14.09.2019 10:00:00 18,4 14,0 19,0 18,8 18,2 18,2 9 5 17 9 NNE 1031,4 63 19 0,0
14.09.2019 09:00:00 16,8 13,1 18,2 17,3 18,4 18,2 9 5 16 9 NNW 1031,5 61 38 0,0
14.09.2019 08:00:00 14,5 13,2 13,7 15,9 18,6 18,2 8 4 16 8 NNW 1031,6 40 0 0,0
14.09.2019 07:00:00 14,3 13,2 13,6 16,0 18,8 18,2 9 5 18 10 NNW 1031,4 34 0 0,0
14.09.2019 06:00:00 14,3 13,1 13,0 16,4 18,9 18,2 7 4 20 11 NNW 1031,2 35 0 0,0
14.09.2019 05:00:00 14,8 13,5 14,3 16,9 19,1 18,2 8 5 15 8 NNW 1031,4 39 0 0,0
14.09.2019 04:00:00 15,4 14,1 14,8 17,1 19,3 18,2 8 4 15 8 NNW 1031,4 51 0 0,0
14.09.2019 03:00:00 15,8 14,2 14,5 17,7 19,5 18,2 7 4 15 8 NNW 1031,2 55 0 0,0
14.09.2019 02:00:00 16,1 14,5 15,0 18,0 19,7 18,2 7 4 11 6 NNW 1031,4 65 0 0,0
14.09.2019 01:00:00 16,5 14,7 15,7 18,5 19,9 18,2 5 3 8 5 NNW 1031,4 75 0 0,0
14.09.2019 00:00:00 17,1 14,7 15,9 18,7 20,1 18,2 3 2 8 4 NNW 1031,2 63 0 0,0
13.09.2019 23:00:00 17,6 14,7 16,1 19,5 20,2 18,2 5 3 9 5 N 1031,3 75 0 0,0
13.09.2019 22:00:00 18,4 14,7 17,5 20,3 20,3 18,3 4 2 10 5 N 1030,7 70 0 0,0
13.09.2019 21:00:00 19,1 14,9 18,0 21,0 20,4 18,3 5 3 9 5 N 1030,7 70 0 0,0
13.09.2019 20:00:00 20,1 14,4 19,0 22,0 20,3 18,3 6 3 10 5 N 1030,3 75 0 0,0
13.09.2019 19:00:00 20,9 14,1 20,5 23,4 20,2 18,3 2 1 13 7 WNW 1030,0 75 0 0,0
13.09.2019 18:00:00 21,9 14,8 22,7 24,9 19,8 18,3 8 4 14 8 W 1029,7 75 0 0,0
13.09.2019 17:00:00 22,3 13,7 23,7 26,2 19,3 18,3 11 6 20 11 WSW 1029,9 75 6 0,0
13.09.2019 16:00:00 26,2 12,8 30,2 27,6 18,8 18,3 10 6 22 12 WSW 1029,5 68 47 0,0
13.09.2019 15:00:00 23,6 13,5 26,8 26,3 18,2 18,3 8 4 21 11 W 1030,2 75 17 0,0
13.09.2019 14:00:00 23,7 13,8 28,1 26,2 17,7 18,3 10 5 27 14 W 1030,4 75 32 0,0
13.09.2019 13:00:00 22,8 13,5 26,0 24,6 17,2 18,3 13 7 23 13 W 1030,6 75 32 0,0
13.09.2019 12:00:00 21,1 13,7 23,7 22,2 16,9 18,3 10 5 19 10 W 1031,0 66 2 0,0
13.09.2019 11:00:00 19,9 13,4 22,0 21,1 16,6 18,3 4 2 8 4 SSE 1031,3 58 42 0,0
13.09.2019 10:00:00 17,9 12,6 19,8 18,3 16,6 18,3 5 3 13 7 SE 1031,5 36 60 0,0
13.09.2019 09:00:00 15,6 12,7 15,2 15,0 16,7 18,3 8 4 13 7 SE 1031,6 35 45 0,0
13.09.2019 08:00:00 12,8 12,2 12,0 13,0 17,0 18,3 2 1 7 4 SSE 1032,2 30 0 0,0
13.09.2019 07:00:00 12,2 11,8 9,7 13,2 17,2 18,3 4 2 7 4 SSE 1031,8 21 0 0,0
13.09.2019 06:00:00 12,6 12,0 9,9 13,7 17,4 18,4 4 2 8 4 SSE 1031,7 30 0 0,0
13.09.2019 05:00:00 13,0 12,3 10,7 14,3 17,6 18,4 4 2 8 4 S 1031,4 37 0 0,0
13.09.2019 04:00:00 13,2 12,5 11,9 14,7 17,8 18,4 3 2 7 4 S 1031,5 31 0 0,0
13.09.2019 03:00:00 13,3 12,5 11,7 15,0 17,9 18,4 3 1 5 3 SSE 1031,6 64 0 0,0
13.09.2019 02:00:00 14,0 12,7 12,0 15,8 18,1 18,4 3 2 6 4 SSE 1031,4 59 0 0,0
13.09.2019 01:00:00 15,1 13,0 14,4 16,1 18,3 18,4 3 2 8 5 S 1031,2 58 0 0,0
13.09.2019 00:00:00 15,3 13,0 13,7 16,1 18,6 18,4 4 2 7 4 SSE 1031,1 62 0 0,0
12.09.2019 23:00:00 14,5 12,8 12,7 15,9 18,8 18,4 0 0 4 2 N 1031,3 63 0 0,0
12.09.2019 22:00:00 15,3 12,8 12,0 16,7 19,0 18,4 3 2 4 2 N 1030,8 61 0 0,0
12.09.2019 21:00:00 16,7 12,8 13,1 17,8 19,2 18,4 3 1 7 4 W 1030,3 67 0 0,0
12.09.2019 20:00:00 17,9 13,0 14,2 19,1 19,2 18,5 4 2 6 4 WSW 1029,8 74 0 0,0
12.09.2019 19:00:00 20,4 13,0 16,8 20,7 19,1 18,5 5 3 12 6 W 1029,2 70 40 0,0
12.09.2019 18:00:00 20,9 12,1 19,4 22,6 18,8 18,5 5 3 18 10 W 1029,2 75 11 0,0
12.09.2019 17:00:00 23,2 12,1 25,0 24,2 18,4 18,5 8 4 19 11 W 1029,0 75 21 0,0
12.09.2019 16:00:00 22,1 11,5 23,0 25,0 17,9 18,5 13 7 22 12 SW 1029,4 75 13 0,0
12.09.2019 15:00:00 23,4 12,0 26,5 25,7 17,3 18,5 10 5 21 11 SSW 1029,5 75 29 0,0
12.09.2019 14:00:00 23,3 11,3 26,7 24,7 16,8 18,5 9 5 21 11 SW 1029,7 57 44 0,0
12.09.2019 13:00:00 20,4 11,3 22,3 22,5 16,3 18,5 10 5 20 11 SE 1030,4 62 39 0,0
12.09.2019 12:00:00 19,5 11,4 22,1 21,1 16,0 18,5 11 6 17 9 SE 1030,7 54 45 0,0
12.09.2019 11:00:00 17,0 11,5 18,2 17,7 15,9 18,6 10 5 19 10 SE 1030,9 41 14 0,0
12.09.2019 10:00:00 14,8 11,5 15,5 15,9 15,9 - 14 7 20 11 SE 1030,9 30 2 0,0
12.09.2019 09:00:00 14,0 10,8 14,3 14,6 15,9 - 10 6 17 9 SE 1030,4 42 0 0,0
12.09.2019 08:00:00 12,9 10,5 12,8 13,6 16,0 - 6 4 10 6 SE 1030,2 36 0 0,0
12.09.2019 07:00:00 12,7 10,7 12,2 13,4 16,1 - 3 2 6 3 SSE 1029,8 34 0 0,0
12.09.2019 06:00:00 12,7 10,3 12,0 13,2 16,2 - 4 2 10 6 SE 1029,2 45 0 0,0
12.09.2019 05:00:00 11,7 10,6 11,1 13,0 16,4 - 3 2 8 4 SW 1029,3 29 0 0,0
12.09.2019 04:00:00 11,4 9,9 10,5 12,8 16,6 - 5 3 7 4 SSE 1028,9 31 0 0,0
12.09.2019 03:00:00 10,2 9,7 9,8 12,4 16,9 - 3 2 5 3 SSE 1028,9 23 0 0,0
12.09.2019 02:00:00 10,0 9,3 7,9 12,6 17,2 - 0 0 4 2 N 1028,6 27 0 0,0
12.09.2019 01:00:00 10,4 9,5 8,2 13,1 17,5 - 3 1 4 2 NNE 1028,1 38 0 0,0
12.09.2019 00:00:00 11,4 9,8 9,0 13,8 17,8 - 3 2 6 3 ESE 1027,5 46 0 0,0
11.09.2019 23:00:00 12,4 10,0 9,7 14,7 18,1 - 5 3 9 5 NNE 1027,1 52 0 0,0
11.09.2019 22:00:00 13,6 9,7 10,3 15,6 18,3 - 0 0 6 3 N 1026,3 65 0 0,0
11.09.2019 21:00:00 15,1 10,3 11,6 16,4 18,5 - 3 1 5 3 N 1025,6 60 0 0,0
11.09.2019 20:00:00 16,2 10,2 12,3 17,7 18,5 - 2 1 9 5 W 1024,6 55 0 0,0
11.09.2019 19:00:00 18,9 9,3 14,7 19,3 18,4 - 6 3 16 9 W 1023,5 71 45 0,0
11.09.2019 18:00:00 21,8 8,5 18,9 21,1 18,1 - 10 5 19 10 W 1022,9 58 60 0,0
11.09.2019 17:00:00 23,0 9,0 24,2 23,0 17,7 - 4 2 16 9 W 1022,3 68 60 0,0
11.09.2019 16:00:00 21,1 7,8 21,6 24,5 17,1 - 5 3 11 6 SW 1022,6 75 59 0,0
11.09.2019 15:00:00 22,3 9,2 24,6 25,1 16,5 - 6 4 14 8 WNW 1022,6 70 60 0,0
11.09.2019 14:00:00 21,2 7,2 24,3 24,4 15,9 - 7 4 13 7 WNW 1022,8 75 60 0,0
11.09.2019 13:00:00 19,6 8,1 20,9 23,1 15,3 - 5 3 11 6 N 1023,3 75 60 0,0
11.09.2019 12:00:00 18,1 9,9 20,5 20,3 15,0 - 4 2 15 8 W 1023,5 45 57 0,0
11.09.2019 11:00:00 14,6 9,6 16,0 16,2 14,8 - 6 3 17 9 NNW 1024,0 39 8 0,0
11.09.2019 10:00:00 14,0 9,2 15,2 14,6 14,8 - 6 3 19 11 NNW 1023,6 47 28 0,0
11.09.2019 09:00:00 11,1 8,3 11,0 12,0 14,9 - 9 5 16 9 NNW 1023,8 34 10 0,0
11.09.2019 08:00:00 8,9 7,9 8,5 11,0 15,1 - 9 5 18 10 NNW 1023,5 27 0 0,0
11.09.2019 07:00:00 8,5 7,8 7,9 10,8 15,2 - 7 4 22 12 NNW 1023,2 22 0 0,0
11.09.2019 06:00:00 8,5 7,8 8,0 10,9 15,4 - 10 6 17 9 NNW 1022,1 19 0 0,0
11.09.2019 05:00:00 8,4 7,9 7,9 11,0 15,7 - 8 5 14 8 N 1022,2 16 0 0,0
11.09.2019 04:00:00 8,4 7,9 7,9 11,0 15,9 - 8 4 13 7 N 1022,4 19 0 0,0
11.09.2019 03:00:00 8,7 8,2 7,8 11,1 16,2 - 9 5 14 8 N 1022,3 20 0 0,0
11.09.2019 02:00:00 8,6 8,2 7,5 11,4 16,5 - 8 4 12 6 N 1022,0 19 0 0,0
11.09.2019 01:00:00 8,8 8,4 7,7 11,9 16,8 - 6 4 12 6 N 1021,7 17 0 0,0
11.09.2019 00:00:00 9,3 8,9 8,0 12,4 17,1 - 8 4 10 5 N 1021,7 26 0 0,0
10.09.2019 23:00:00 10,0 9,0 7,7 13,1 17,4 - 5 3 8 5 N 1021,6 42 0 0,0
10.09.2019 22:00:00 10,8 9,3 8,2 14,0 17,7 - 5 3 10 5 NNW 1021,2 42 0 0,0
10.09.2019 21:00:00 12,2 9,6 8,9 15,1 17,8 - 5 3 9 5 NNW 1020,3 56 0 0,0
10.09.2019 20:00:00 13,6 8,9 10,0 16,6 17,9 - 6 3 16 9 N 1019,3 64 0 0,0
10.09.2019 19:00:00 16,9 9,5 14,5 18,2 17,8 - 7 4 15 8 N 1018,5 68 45 0,0
10.09.2019 18:00:00 19,1 9,5 16,8 19,9 17,5 - 8 4 20 11 N 1017,8 52 57 0,0
10.09.2019 17:00:00 18,6 9,0 18,2 21,5 17,1 - 8 5 14 8 N 1017,3 60 57 0,0

tt = temperature
td = dewpoint
tt 5cm = temperature 5cm
tt -5cm = temperature -5cm
tt -20cm = temperature -20cm
tt -100cm = temperature -100cm
ff = wind speed
fx = gusts
dd = wind direction
ppp = reduced air pressure
vv = visibility
sd = sunshine duration
rr = precipitation

Next stations